Wind_Speed
13 15 19 24 28 29 30 30 27 26 29 25 28 25 23 19 17 17 14 16 19 18 17 16 15 14 17 12 8 13 5 5
16 16 20 20 26 29 28 29 29 31 32 32 30 25 21 18 18 20 21 22 21 19 17 14 17 20 14 7 13 12 7 7
16 20 21 24 26 27 29 30 30 32 32 31 27 26 21 21 24 29 28 24 24 22 19 18 12 16 24 20 19 12 9 8
19 19 21 26 27 29 30 32 33 33 31 30 29 29 32 30 29 33 33 27 26 26 23 21 17 15 9 15 17 11 10 9
21 21 20 22 24 26 28 34 35 34 34 33 33 34 31 36 33 32 32 29 29 33 28 23 21 18 14 19 16 13 11 11
24 24 22 22 22 24 23 27 30 33 35 34 34 35 34 35 34 34 34 35 33 31 28 22 21 20 19 20 17 15 14 14
25 26 25 24 25 25 24 27 28 32 34 35 35 36 35 35 35 36 37 35 29 27 27 23 20 21 21 20 18 16 15 15
26 27 26 25 26 24 23 24 27 30 33 34 35 35 35 36 36 36 36 32 31 28 25 24 21 20 20 20 17 16 16 17
25 25 25 25 26 25 24 23 26 29 30 34 33 30 35 33 31 28 31 26 26 25 25 24 25 21 22 19 19 18 18 19
26 25 26 28 27 26 24 24 25 28 29 32 30 37 34 35 33 29 27 22 25 25 25 24 21 19 20 19 21 19 19 20
28 27 27 29 30 29 28 28 26 26 27 27 35 34 31 30 29 27 24 25 26 25 24 22 20 22 21 20 23 19 21 21
31 30 31 32 34 35 33 31 29 29 30 30 34 29 29 26 27 27 25 26 26 26 24 20 20 22 22 23 20 20 20 21
34 33 35 36 37 37 34 30 30 29 29 30 32 30 28 27 27 27 28 28 28 25 23 26 25 28 23 22 21 20 21 21
34 35 37 39 39 37 35 32 30 29 27 27 31 33 29 29 29 29 29 29 25 25 20 25 24 24 23 22 22 22 21 20
31 35 36 38 41 40 41 37 34 33 29 28 29 32 29 30 31 31 31 29 29 27 26 27 26 24 23 22 22 24 20 19
29 33 37 40 42 44 45 40 35 35 33 31 29 29 32 33 32 33 32 31 30 30 30 27 27 25 23 22 23 21 21 20
25 28 31 37 45 44 45 46 42 40 37 34 34 33 32 32 33 34 31 33 32 29 27 27 25 23 23 22 23 22 21 19
39 38 34 38 40 44 45 47 46 44 42 41 40 38 35 35 36 36 35 36 31 30 27 26 24 23 22 22 22 21 19 19
37 40 40 34 37 40 43 45 47 47 47 44 43 41 39 37 37 36 35 35 32 30 28 24 24 23 22 22 22 22 20 19
39 38 38 37 36 35 36 41 46 46 49 50 43 42 39 36 35 38 34 33 33 30 24 27 24 23 22 22 22 20 19 19
Wind_Direction
296 273 251 242 243 242 236 234 245 230 242 237 238 234 234 238 241 241 241 265 250 244 241 243 252 269 272 251 305 288 275 277
275 280 258 243 245 242 243 236 238 233 234 232 231 229 231 235 247 240 253 266 250 235 238 255 285 274 249 268 277 265 262 271
262 268 268 246 238 240 242 239 233 232 230 230 229 230 237 237 258 243 261 259 245 233 241 253 280 279 262 257 262 254 261 266
263 263 259 252 255 241 237 241 241 237 233 232 230 229 237 242 247 249 260 249 238 233 240 252 269 254 252 253 252 249 256 269
249 250 252 249 252 254 251 244 242 235 233 231 232 232 239 237 251 249 250 251 241 242 258 250 245 242 257 249 240 244 253 270
246 241 249 250 248 250 242 246 244 232 232 232 234 237 240 242 248 249 249 248 242 246 251 248 234 237 237 239 236 243 254 267
241 240 240 243 244 242 241 240 245 233 232 234 238 241 245 248 250 251 252 245 244 238 243 233 234 240 234 232 237 246 260 273
242 243 243 243 248 246 245 246 240 238 237 237 242 247 250 255 257 257 258 257 250 233 229 230 236 233 233 234 242 251 263 274
239 239 242 241 244 242 246 246 248 245 236 243 246 254 255 265 263 267 267 261 231 224 226 229 229 226 234 237 246 254 265 275
236 239 240 240 244 247 248 248 247 248 247 246 246 248 254 261 263 260 262 230 226 223 227 226 225 233 238 242 247 254 266 275
234 241 243 241 242 244 246 246 242 243 242 246 245 249 251 256 254 251 234 225 222 227 231 226 234 235 237 239 246 257 268 277
234 236 241 242 238 239 241 243 243 241 240 243 251 246 250 245 243 232 221 221 225 227 225 229 243 244 242 243 250 260 269 276
243 240 241 244 245 242 247 251 252 251 243 242 246 249 247 241 228 219 220 215 222 222 229 242 235 237 240 248 257 266 273 272
247 249 249 247 248 248 245 249 248 246 240 244 242 240 249 239 226 223 223 223 220 242 238 237 234 234 240 250 259 265 265 260
257 255 256 254 252 247 242 242 242 241 238 248 246 233 243 241 232 228 227 221 221 237 236 229 230 234 240 252 260 263 259 256
268 262 254 253 250 247 247 247 246 244 246 247 245 238 235 235 231 231 228 228 218 216 221 223 228 234 244 254 258 259 256 257
281 266 258 258 254 249 246 243 240 239 238 239 238 239 230 228 234 230 233 223 217 218 219 225 230 239 246 249 252 253 255 256
284 274 261 245 248 250 248 245 241 241 240 236 233 232 227 227 230 230 223 224 221 218 219 226 233 241 247 247 251 254 255 257
258 258 249 245 243 245 248 245 243 241 240 239 236 231 227 225 228 224 224 222 218 217 218 226 239 241 244 248 252 253 254 255
259 253 245 247 244 241 241 240 241 241 240 236 232 226 222 220 225 221 218 216 212 213 221 229 233 238 244 248 249 250 249 248
Height
3131 3130 3129 3130 3131 3132 3134 3137 3140 3142 3145 3147 3150 3152 3154 3156 3157 3158 3158 3159 3159 3160 3160 3161 3161 3162 3162 3161 3161 3163 3160 3160
3129 3128 3127 3128 3128 3128 3131 3133 3135 3138 3141 3144 3146 3148 3151 3152 3154 3155 3154 3155 3156 3157 3158 3159 3159 3158 3158 3158 3161 3160 3158 3157
3125 3125 3125 3125 3125 3126 3126 3128 3131 3134 3136 3139 3141 3144 3147 3146 3147 3149 3149 3151 3153 3154 3155 3156 3155 3155 3155 3157 3159 3157 3155 3155
3122 3121 3121 3121 3121 3122 3124 3124 3126 3128 3131 3134 3137 3140 3140 3144 3143 3144 3146 3147 3149 3149 3150 3152 3151 3151 3152 3153 3155 3153 3152 3153
3116 3117 3116 3117 3118 3119 3119 3120 3122 3124 3126 3129 3132 3134 3136 3137 3139 3140 3140 3142 3144 3146 3147 3147 3146 3149 3149 3150 3150 3149 3149 3149
3109 3110 3112 3112 3112 3112 3114 3115 3116 3118 3122 3125 3127 3129 3131 3132 3133 3134 3135 3136 3139 3142 3142 3143 3142 3144 3145 3146 3146 3145 3145 3145
3104 3104 3105 3106 3106 3106 3108 3110 3111 3113 3116 3120 3122 3123 3125 3126 3128 3129 3130 3131 3134 3135 3135 3137 3139 3141 3141 3142 3142 3141 3141 3141
3096 3097 3100 3101 3102 3102 3103 3105 3107 3109 3111 3114 3116 3119 3120 3122 3123 3124 3124 3125 3127 3128 3130 3133 3135 3136 3137 3138 3138 3137 3137 3137
3089 3091 3093 3095 3096 3097 3098 3099 3101 3103 3106 3108 3110 3111 3113 3115 3116 3117 3118 3118 3121 3123 3126 3129 3130 3130 3133 3133 3134 3133 3133 3133
3084 3084 3086 3088 3090 3092 3093 3094 3095 3097 3099 3101 3103 3105 3106 3108 3109 3109 3111 3113 3117 3119 3122 3124 3125 3126 3128 3128 3130 3129 3129 3129
3075 3077 3078 3080 3083 3085 3086 3087 3088 3090 3092 3093 3096 3097 3099 3100 3100 3102 3104 3108 3111 3115 3118 3119 3120 3121 3122 3123 3125 3124 3124 3124
3067 3069 3071 3072 3073 3075 3078 3080 3081 3083 3085 3087 3089 3090 3091 3092 3093 3096 3098 3102 3106 3109 3111 3114 3116 3117 3118 3120 3119 3119 3119 3119
3060 3061 3063 3064 3065 3067 3071 3073 3075 3076 3078 3080 3081 3084 3085 3086 3088 3090 3093 3093 3098 3102 3106 3108 3110 3113 3115 3115 3115 3115 3115 3114
3050 3053 3054 3056 3057 3060 3062 3064 3067 3069 3070 3071 3073 3077 3080 3081 3082 3084 3087 3090 3093 3097 3099 3103 3106 3108 3109 3110 3110 3110 3109 3109
3043 3044 3045 3047 3049 3050 3052 3053 3056 3058 3062 3063 3066 3069 3072 3076 3077 3079 3081 3084 3086 3090 3095 3097 3100 3102 3103 3104 3104 3104 3104 3103
3034 3035 3035 3036 3036 3039 3041 3045 3048 3051 3054 3056 3058 3061 3064 3068 3071 3072 3075 3077 3080 3084 3087 3090 3093 3095 3097 3098 3098 3099 3099 3099
3026 3025 3025 3026 3026 3029 3032 3036 3039 3041 3044 3047 3049 3052 3055 3058 3062 3065 3067 3071 3074 3077 3080 3085 3087 3090 3091 3092 3093 3094 3094 3094
3014 3015 3015 3015 3014 3016 3020 3024 3028 3032 3035 3037 3040 3043 3046 3050 3053 3057 3061 3064 3068 3071 3074 3078 3081 3083 3085 3087 3088 3089 3089 3088
3003 3003 3004 3004 3003 3004 3006 3010 3016 3021 3024 3028 3032 3034 3037 3040 3044 3048 3053 3056 3060 3064 3067 3071 3075 3077 3079 3081 3082 3083 3083 3083
2990 2990 2991 2992 2994 2994 2995 2997 3002 3008 3011 3016 3021 3025 3029 3032 3035 3040 3045 3050 3053 3057 3061 3065 3068 3071 3073 3075 3077 3078 3078 3079